Time[GMT],salinity[psu](1m),sigma_t[kg/m^3](1m),conductivity[msiemens/cm](1m),temperature[C](1m)
2018-06-28 22:00,35.648,22.897,57.100,27.96
2018-06-28 23:00,35.656,22.910,57.090,27.94
2018-06-29 00:00,35.657,22.917,57.070,27.92
2018-06-29 01:00,35.650,22.912,57.060,27.92
2018-06-29 02:00,35.657,22.917,57.070,27.92
2018-06-29 03:00,35.657,22.921,57.060,27.91
2018-06-29 04:00,35.657,22.921,57.060,27.91
2018-06-29 05:00,35.650,22.912,57.060,27.92
2018-06-29 06:00,35.658,22.924,57.050,27.90
2018-06-29 07:00,35.665,22.930,57.060,27.90
2018-06-29 08:00,35.659,22.932,57.030,27.88
2018-06-29 09:00,35.659,22.935,57.020,27.87
2018-06-29 10:00,35.668,22.948,57.010,27.85
2018-06-29 11:00,35.646,22.928,56.990,27.86
2018-06-29 12:00,35.653,22.937,56.990,27.85
2018-06-29 13:00,35.646,22.932,56.980,27.85
2018-06-29 14:00,35.639,22.923,56.980,27.86
2018-06-29 15:00,35.638,22.916,57.000,27.88
2018-06-29 16:00,35.636,22.905,57.030,27.91
2018-06-29 17:00,35.641,22.895,57.080,27.95
2018-06-29 18:00,35.631,22.872,57.120,28.00
2018-06-29 19:00,35.631,22.868,57.130,28.01
2018-06-29 20:00,35.640,22.888,57.100,27.97
2018-06-29 21:00,35.641,22.895,57.080,27.95
2018-06-30 10:00,35.696,22.969,57.050,27.85
2018-06-30 11:00,35.696,22.973,57.040,27.84
2018-06-30 12:00,35.695,22.966,57.060,27.86
2018-06-30 13:00,35.695,22.962,57.070,27.87
2018-06-30 14:00,35.708,22.965,57.110,27.89
2018-06-30 15:00,35.700,22.953,57.120,27.91
2018-06-30 16:00,35.720,22.961,57.170,27.93
2018-06-30 17:00,35.697,22.934,57.170,27.96
2018-06-30 18:00,35.702,22.928,57.210,27.99
2018-06-30 19:00,35.701,22.921,57.230,28.01
2018-06-30 20:00,35.707,22.919,57.260,28.03
2018-06-30 21:00,35.721,22.926,57.290,28.04
2018-06-30 22:00,35.715,22.928,57.260,28.02
2018-06-30 23:00,35.730,22.946,57.260,28.00
2018-07-01 00:00,35.722,22.937,57.260,28.01
2018-07-01 01:00,35.716,22.939,57.230,27.99
2018-07-01 02:00,35.718,22.950,57.200,27.96
2018-07-01 03:00,35.726,22.959,57.200,27.95
2018-07-01 04:00,35.726,22.963,57.190,27.94
2018-07-01 05:00,35.733,22.964,57.210,27.95
2018-07-01 06:00,35.734,22.972,57.190,27.93
2018-07-01 07:00,35.733,22.968,57.200,27.94
2018-07-01 08:00,35.734,22.975,57.180,27.92
2018-07-01 09:00,35.742,22.984,57.180,27.91
2018-07-01 10:00,35.743,22.992,57.160,27.89
2018-07-01 11:00,35.736,22.986,57.150,27.89
2018-07-01 12:00,35.742,22.988,57.170,27.90
2018-07-01 13:00,35.749,22.990,57.190,27.91
2018-07-01 14:00,35.747,22.975,57.230,27.95
2018-07-01 15:00,35.751,22.962,57.290,28.00
2018-07-01 16:00,35.755,22.949,57.350,28.05
2018-07-01 17:00,35.751,22.923,57.420,28.12
2018-07-01 18:00,35.770,22.924,57.490,28.16
2018-07-01 19:00,35.766,22.894,57.570,28.24
2018-07-01 20:00,35.743,22.867,57.570,28.27
2018-07-01 21:00,35.741,22.852,57.610,28.31
2018-07-01 22:00,35.718,22.868,57.470,28.21
2018-07-01 23:00,35.724,22.909,57.360,28.10
2018-07-02 00:00,35.735,22.936,57.310,28.04
2018-07-02 01:00,35.720,22.918,57.310,28.06
2018-07-02 02:00,35.727,22.927,57.310,28.05
2018-07-02 03:00,35.714,22.920,57.280,28.04
2018-07-02 04:00,35.714,22.924,57.270,28.03
2018-07-02 05:00,35.698,22.899,57.290,28.07
2018-07-02 06:00,35.706,22.912,57.280,28.05
2018-07-02 07:00,35.714,22.924,57.270,28.03
2018-07-02 08:00,35.722,22.933,57.270,28.02
2018-07-02 09:00,35.687,22.910,57.210,28.01
2018-07-02 10:00,35.695,22.919,57.210,28.00
2018-07-02 11:00,35.695,22.919,57.210,28.00
2018-07-02 12:00,35.701,22.921,57.230,28.01
2018-07-02 13:00,35.700,22.914,57.250,28.03
2018-07-02 14:00,35.706,22.912,57.280,28.05
2018-07-02 15:00,35.696,22.888,57.320,28.10
2018-07-02 16:00,35.699,22.863,57.410,28.18
2018-07-02 17:00,35.703,22.850,57.470,28.23
2018-07-02 18:00,35.703,22.846,57.480,28.24
2018-07-02 19:00,35.686,22.817,57.510,28.29
2018-07-02 20:00,35.688,22.832,57.470,28.25
2018-07-02 21:00,35.674,22.822,57.450,28.25
2018-07-02 22:00,35.670,22.839,57.380,28.19
2018-07-02 23:00,35.672,22.850,57.350,28.16
2018-07-03 00:00,35.682,22.873,57.310,28.11
2018-07-03 01:00,35.668,22.863,57.290,28.11
2018-07-03 02:00,35.669,22.870,57.270,28.09
2018-07-03 03:00,35.670,22.878,57.250,28.07
2018-07-03 04:00,35.678,22.894,57.230,28.04
2018-07-03 05:00,35.685,22.899,57.240,28.04
2018-07-03 06:00,35.686,22.903,57.230,28.03
2018-07-03 07:00,35.700,22.914,57.250,28.03
2018-07-03 08:00,35.687,22.910,57.210,28.01
2018-07-03 09:00,35.694,22.916,57.220,28.01
2018-07-03 10:00,35.694,22.916,57.220,28.01
2018-07-03 11:00,35.695,22.919,57.210,28.00
2018-07-03 12:00,35.701,22.921,57.230,28.01
2018-07-03 13:00,35.694,22.912,57.230,28.02
2018-07-03 14:00,35.692,22.901,57.260,28.05
2018-07-03 15:00,35.697,22.895,57.300,28.08
2018-07-03 16:00,35.703,22.889,57.340,28.11
2018-07-03 17:00,35.701,22.875,57.380,28.15
2018-07-03 18:00,35.705,22.861,57.440,28.20
2018-07-03 19:00,35.706,22.869,57.420,28.18
2018-07-03 20:00,35.698,22.856,57.430,28.20
2018-07-03 21:00,35.699,22.863,57.410,28.18
2018-07-03 22:00,35.699,22.867,57.400,28.17
2018-07-03 23:00,35.694,22.873,57.360,28.14
2018-07-04 00:00,35.695,22.877,57.350,28.13
2018-07-04 01:00,35.696,22.888,57.320,28.10
2018-07-04 02:00,,,,
2018-07-04 03:00,35.697,22.891,57.310,28.09
2018-07-04 04:00,35.698,22.899,57.290,28.07
2018-07-04 05:00,35.691,22.897,57.270,28.06
2018-07-04 06:00,35.699,22.906,57.270,28.05
2018-07-04 07:00,35.685,22.899,57.240,28.04
2018-07-04 08:00,35.678,22.894,57.230,28.04
2018-07-04 09:00,35.687,22.907,57.220,28.02
2018-07-04 10:00,35.688,22.914,57.200,28.00
2018-07-04 11:00,35.688,22.914,57.200,28.00
2018-07-04 12:00,35.688,22.914,57.200,28.00
2018-07-04 13:00,35.687,22.910,57.210,28.01
2018-07-04 14:00,35.679,22.898,57.220,28.03
2018-07-04 15:00,35.686,22.903,57.230,28.03
2018-07-04 16:00,35.683,22.885,57.280,28.08
2018-07-04 17:00,35.689,22.879,57.320,28.11
2018-07-04 18:00,35.695,22.877,57.350,28.13
2018-07-04 19:00,35.692,22.862,57.390,28.17
2018-07-04 20:00,35.692,22.862,57.390,28.17
2018-07-04 21:00,35.692,22.858,57.400,28.18
2018-07-04 22:00,35.694,22.873,57.360,28.14
2018-07-04 23:00,35.689,22.879,57.320,28.11
2018-07-05 00:00,35.690,22.886,57.300,28.09
2018-07-05 01:00,35.697,22.895,57.300,28.08
2018-07-05 02:00,35.690,22.890,57.290,28.08
2018-07-05 03:00,35.699,22.906,57.270,28.05
2018-07-05 04:00,35.700,22.910,57.260,28.04
2018-07-05 05:00,35.693,22.908,57.240,28.03
2018-07-05 06:00,35.694,22.912,57.230,28.02
2018-07-05 07:00,35.702,22.928,57.210,27.99
2018-07-05 08:00,35.703,22.932,57.200,27.98
2018-07-05 09:00,35.695,22.919,57.210,28.00
2018-07-05 10:00,35.703,22.932,57.200,27.98
2018-07-05 11:00,35.696,22.930,57.180,27.97
2018-07-05 12:00,35.696,22.930,57.180,27.97
2018-07-05 13:00,35.703,22.932,57.200,27.98
2018-07-05 14:00,35.702,22.925,57.220,28.00
2018-07-05 15:00,35.701,22.917,57.240,28.02
2018-07-05 16:00,35.690,22.890,57.290,28.08
2018-07-05 17:00,35.702,22.882,57.360,28.13
2018-07-05 18:00,35.712,22.867,57.450,28.20
2018-07-05 19:00,35.704,22.858,57.450,28.21
2018-07-05 20:00,35.710,22.852,57.490,28.24
2018-07-05 21:00,35.718,22.864,57.480,28.22
2018-07-05 22:00,35.719,22.872,57.460,28.20
2018-07-05 23:00,35.722,22.894,57.400,28.14
2018-07-06 00:00,35.716,22.892,57.380,28.13
2018-07-06 01:00,35.717,22.904,57.350,28.10
2018-07-06 02:00,35.718,22.911,57.330,28.08
2018-07-06 03:00,35.711,22.906,57.320,28.08
2018-07-06 04:00,35.720,22.918,57.310,28.06
2018-07-06 05:00,35.720,22.922,57.300,28.05
2018-07-06 06:00,35.720,22.922,57.300,28.05
2018-07-06 07:00,35.720,22.922,57.300,28.05
2018-07-06 08:00,35.721,22.929,57.280,28.03
2018-07-06 09:00,35.722,22.933,57.270,28.02
2018-07-06 10:00,35.722,22.933,57.270,28.02
2018-07-06 11:00,35.722,22.933,57.270,28.02
2018-07-06 12:00,35.714,22.924,57.270,28.03
2018-07-06 13:00,35.722,22.933,57.270,28.02
2018-07-06 14:00,35.714,22.924,57.270,28.03
2018-07-06 15:00,35.712,22.913,57.300,28.06
2018-07-06 16:00,35.718,22.907,57.340,28.09
2018-07-06 17:00,35.723,22.901,57.380,28.12
2018-07-06 18:00,35.699,22.863,57.410,28.18
2018-07-06 19:00,35.692,22.858,57.400,28.18
2018-07-06 20:00,35.691,22.851,57.420,28.20
2018-07-06 21:00,35.699,22.863,57.410,28.18
2018-07-06 22:00,35.694,22.873,57.360,28.14
2018-07-06 23:00,35.688,22.875,57.330,28.12
2018-07-07 00:00,35.690,22.886,57.300,28.09
2018-07-07 01:00,35.690,22.886,57.300,28.09
2018-07-07 02:00,35.684,22.888,57.270,28.07
2018-07-07 03:00,35.684,22.888,57.270,28.07
2018-07-07 04:00,35.663,22.872,57.240,28.07
2018-07-07 05:00,35.650,22.869,57.200,28.05
2018-07-07 06:00,35.650,22.869,57.200,28.05
2018-07-07 07:00,35.651,22.877,57.180,28.03
2018-07-07 08:00,35.651,22.877,57.180,28.03
2018-07-07 09:00,35.651,22.877,57.180,28.03
2018-07-07 10:00,35.651,22.880,57.170,28.02
2018-07-07 11:00,35.638,22.873,57.140,28.01
2018-07-07 12:00,35.638,22.873,57.140,28.01
2018-07-07 13:00,35.638,22.873,57.140,28.01
2018-07-07 14:00,35.651,22.880,57.170,28.02
2018-07-07 15:00,35.650,22.873,57.190,28.04
2018-07-07 16:00,35.641,22.853,57.220,28.08
2018-07-07 17:00,35.624,22.824,57.250,28.13
2018-07-07 18:00,35.609,22.802,57.260,28.16
2018-07-07 19:00,35.601,22.793,57.260,28.17
2018-07-07 20:00,35.595,22.795,57.230,28.15
2018-07-07 21:00,35.589,22.797,57.200,28.13
2018-07-07 22:00,35.590,22.801,57.190,28.12
2018-07-07 23:00,35.584,22.803,57.160,28.10
2018-07-08 00:00,35.578,22.805,57.130,28.08
2018-07-08 01:00,35.578,22.805,57.130,28.08
2018-07-08 02:00,35.571,22.800,57.120,28.08
2018-07-08 03:00,35.570,22.796,57.130,28.09
2018-07-08 04:00,35.571,22.804,57.110,28.07
2018-07-08 05:00,35.557,22.793,57.090,28.07
2018-07-08 06:00,35.565,22.806,57.080,28.05
2018-07-08 07:00,35.565,22.806,57.080,28.05
2018-07-08 08:00,35.566,22.809,57.070,28.04
2018-07-08 09:00,35.559,22.804,57.060,28.04
2018-07-08 10:00,35.552,22.799,57.050,28.04
2018-07-08 11:00,35.559,22.804,57.060,28.04
2018-07-08 12:00,35.558,22.797,57.080,28.06
2018-07-08 13:00,35.544,22.786,57.060,28.06
2018-07-08 14:00,35.536,22.774,57.070,28.08
2018-07-08 15:00,35.535,22.770,57.080,28.09
2018-07-08 16:00,35.513,22.743,57.080,28.12
2018-07-08 17:00,35.512,22.739,57.090,28.13
2018-07-08 18:00,35.513,22.743,57.080,28.12
2018-07-08 19:00,35.504,22.727,57.100,28.15
2018-07-08 20:00,35.498,22.725,57.080,28.14
2018-07-08 21:00,35.491,22.724,57.060,28.13
2018-07-08 22:00,35.493,22.735,57.030,28.10
2018-07-08 23:00,35.493,22.738,57.020,28.09
2018-07-09 00:00,35.486,22.729,57.020,28.10
2018-07-09 01:00,35.492,22.731,57.040,28.11
2018-07-09 02:00,35.500,22.740,57.040,28.10
2018-07-09 03:00,35.500,22.740,57.040,28.10
2018-07-09 04:00,35.500,22.744,57.030,28.09
2018-07-09 05:00,35.508,22.752,57.030,28.08
2018-07-09 06:00,35.515,22.758,57.040,28.08
2018-07-09 07:00,35.507,22.749,57.040,28.09
2018-07-09 08:00,35.515,22.761,57.030,28.07
2018-07-09 09:00,35.501,22.751,57.010,28.07
2018-07-09 10:00,35.502,22.755,57.000,28.06
2018-07-09 11:00,35.417,22.691,56.880,28.06
2018-07-09 12:00,35.439,22.711,56.900,28.05
2018-07-09 13:00,35.475,22.741,56.940,28.04
2018-07-09 14:00,35.489,22.751,56.960,28.04
2018-07-09 15:00,35.495,22.753,56.980,28.05
2018-07-09 16:00,35.502,22.758,56.990,28.05
2018-07-09 17:00,35.510,22.767,56.990,28.04
2018-07-09 18:00,35.517,22.776,56.990,28.03
2018-07-09 19:00,35.511,22.774,56.970,28.02
2018-07-09 20:00,35.510,22.767,56.990,28.04
2018-07-09 21:00,35.483,22.757,56.920,28.01
2018-07-09 22:00,35.503,22.766,56.970,28.03
2018-07-09 23:00,35.510,22.771,56.980,28.03
2018-07-10 00:00,35.504,22.773,56.950,28.01
2018-07-10 01:00,35.498,22.771,56.930,28.00
2018-07-10 02:00,35.504,22.773,56.950,28.01
2018-07-10 03:00,35.505,22.777,56.940,28.00
2018-07-10 04:00,35.505,22.780,56.930,27.99
2018-07-10 05:00,35.511,22.778,56.960,28.01
2018-07-10 06:00,35.505,22.780,56.930,27.99
2018-07-10 07:00,35.506,22.784,56.920,27.98
2018-07-10 08:00,35.513,22.793,56.920,27.97
2018-07-10 09:00,35.513,22.793,56.920,27.97
2018-07-10 10:00,35.514,22.796,56.910,27.96
2018-07-10 11:00,35.527,22.803,56.940,27.97
2018-07-10 12:00,35.513,22.793,56.920,27.97
2018-07-10 13:00,35.513,22.789,56.930,27.98
2018-07-10 14:00,35.519,22.791,56.950,27.99
2018-07-10 15:00,35.518,22.780,56.980,28.02
2018-07-10 16:00,35.516,22.765,57.020,28.06
2018-07-10 17:00,35.515,22.758,57.040,28.08
2018-07-10 18:00,35.514,22.754,57.050,28.09
2018-07-10 19:00,35.513,22.747,57.070,28.11
2018-07-10 20:00,35.513,22.747,57.070,28.11
2018-07-10 21:00,35.513,22.747,57.070,28.11
2018-07-10 22:00,35.508,22.752,57.030,28.08
2018-07-10 23:00,35.501,22.751,57.010,28.07
2018-07-11 00:00,35.503,22.762,56.980,28.04
2018-07-11 01:00,35.503,22.766,56.970,28.03
2018-07-11 02:00,35.496,22.760,56.960,28.03
2018-07-11 03:00,35.489,22.751,56.960,28.04
2018-07-11 04:00,35.496,22.760,56.960,28.03
2018-07-11 05:00,35.496,22.760,56.960,28.03
2018-07-11 06:00,35.497,22.764,56.950,28.02
2018-07-11 07:00,35.525,22.789,56.980,28.01
2018-07-11 08:00,35.553,22.806,57.030,28.02
2018-07-11 09:00,35.547,22.812,56.990,27.99
2018-07-11 10:00,35.575,22.826,57.050,28.01
2018-07-11 11:00,35.568,22.820,57.040,28.01
2018-07-11 12:00,35.568,22.824,57.030,28.00
2018-07-11 13:00,35.575,22.826,57.050,28.01
2018-07-11 14:00,35.580,22.816,57.100,28.05
2018-07-11 15:00,35.557,22.793,57.090,28.07
2018-07-11 16:00,35.550,22.788,57.080,28.07
2018-07-11 17:00,35.542,22.772,57.100,28.10
2018-07-11 18:00,35.547,22.762,57.150,28.14
2018-07-11 19:00,35.552,22.753,57.200,28.18
2018-07-11 20:00,35.545,22.747,57.190,28.18
2018-07-11 21:00,35.545,22.747,57.190,28.18
2018-07-11 22:00,35.545,22.747,57.190,28.18
2018-07-11 23:00,35.539,22.753,57.150,28.15
2018-07-12 00:00,35.534,22.759,57.110,28.12
2018-07-12 01:00,35.542,22.775,57.090,28.09
2018-07-12 02:00,35.550,22.788,57.080,28.07
2018-07-12 03:00,35.557,22.789,57.100,28.08
2018-07-12 04:00,35.556,22.786,57.110,28.09
2018-07-12 05:00,35.550,22.788,57.080,28.07
2018-07-12 06:00,35.538,22.788,57.030,28.04
2018-07-12 07:00,35.524,22.781,57.000,28.03
2018-07-12 08:00,35.504,22.773,56.950,28.01
2018-07-12 09:00,35.525,22.785,56.990,28.02
2018-07-12 10:00,35.510,22.771,56.980,28.03
2018-07-12 11:00,35.483,22.753,56.930,28.02
2018-07-12 12:00,35.496,22.760,56.960,28.03
2018-07-12 13:00,35.489,22.755,56.950,28.03
2018-07-12 14:00,35.480,22.735,56.980,28.07
2018-07-12 15:00,35.472,22.719,57.000,28.10
2018-07-12 16:00,35.450,22.696,56.990,28.12
2018-07-12 17:00,35.450,22.653,57.130,28.25
2018-07-12 18:00,35.456,22.651,57.160,28.27
2018-07-12 19:00,35.464,22.664,57.150,28.25
2018-07-12 20:00,35.483,22.665,57.220,28.29
2018-07-12 21:00,35.485,22.680,57.180,28.25
2018-07-12 22:00,35.474,22.687,57.110,28.20
2018-07-12 23:00,35.489,22.709,57.100,28.17
2018-07-13 00:00,35.484,22.715,57.060,28.14
2018-07-13 01:00,35.479,22.724,57.010,28.10
2018-07-13 02:00,35.486,22.733,57.010,28.09
2018-07-13 03:00,35.478,22.717,57.030,28.12
2018-07-13 04:00,35.485,22.726,57.030,28.11
2018-07-13 05:00,35.494,22.746,57.000,28.07
2018-07-13 06:00,35.487,22.737,57.000,28.08
2018-07-13 07:00,35.486,22.733,57.010,28.09
2018-07-13 08:00,35.487,22.737,57.000,28.08
2018-07-13 09:00,35.488,22.748,56.970,28.05
2018-07-13 10:00,35.495,22.753,56.980,28.05
2018-07-13 11:00,35.489,22.755,56.950,28.03
2018-07-13 12:00,35.488,22.748,56.970,28.05
2018-07-13 13:00,35.502,22.755,57.000,28.06
2018-07-13 14:00,35.515,22.758,57.040,28.08
2018-07-13 15:00,35.533,22.755,57.120,28.13
2018-07-13 16:00,35.572,22.765,57.240,28.19
2018-07-13 17:00,35.570,22.750,57.280,28.23
2018-07-13 18:00,35.560,22.723,57.330,28.29
2018-07-13 19:00,35.560,22.723,57.330,28.29
2018-07-13 20:00,35.557,22.743,57.250,28.22
2018-07-13 21:00,35.556,22.740,57.260,28.23
2018-07-13 22:00,35.523,22.728,57.170,28.19
2018-07-13 23:00,35.527,22.754,57.100,28.12
2018-07-14 00:00,35.521,22.759,57.060,28.09
2018-07-14 01:00,35.575,22.783,57.190,28.14
2018-07-14 02:00,35.590,22.801,57.190,28.12
2018-07-14 03:00,35.584,22.807,57.150,28.09
2018-07-14 04:00,35.578,22.809,57.120,28.07
2018-07-14 05:00,35.609,22.845,57.120,28.03
2018-07-14 06:00,35.616,22.850,57.130,28.03
2018-07-14 07:00,35.602,22.840,57.110,28.03
2018-07-14 08:00,35.610,22.856,57.090,28.00
2018-07-14 09:00,35.608,22.841,57.130,28.04
2018-07-14 10:00,35.608,22.841,57.130,28.04
2018-07-14 11:00,35.601,22.832,57.130,28.05
2018-07-14 12:00,35.600,22.829,57.140,28.06
2018-07-14 13:00,35.607,22.834,57.150,28.06
2018-07-14 14:00,35.613,22.832,57.180,28.08
2018-07-14 15:00,35.604,22.815,57.200,28.11
2018-07-14 16:00,35.611,22.817,57.220,28.12
2018-07-14 17:00,35.610,22.810,57.240,28.14
2018-07-14 18:00,35.603,22.804,57.230,28.14
2018-07-14 19:00,35.609,22.802,57.260,28.16
2018-07-14 20:00,35.595,22.795,57.230,28.15
2018-07-14 21:00,35.603,22.804,57.230,28.14
2018-07-14 22:00,35.603,22.808,57.220,28.13
2018-07-14 23:00,35.604,22.812,57.210,28.12
2018-07-15 00:00,35.612,22.824,57.200,28.10
2018-07-15 01:00,35.605,22.823,57.180,28.09
2018-07-15 02:00,35.606,22.826,57.170,28.08
2018-07-15 03:00,35.614,22.839,57.160,28.06
2018-07-15 04:00,35.606,22.826,57.170,28.08
2018-07-15 05:00,35.605,22.823,57.180,28.09
2018-07-15 06:00,35.605,22.819,57.190,28.10
2018-07-15 07:00,35.605,22.819,57.190,28.10
2018-07-15 08:00,35.598,22.814,57.180,28.10
2018-07-15 09:00,35.605,22.823,57.180,28.09
2018-07-15 10:00,35.605,22.823,57.180,28.09
2018-07-15 11:00,35.607,22.830,57.160,28.07
2018-07-15 12:00,35.592,22.816,57.150,28.08
2018-07-15 13:00,35.591,22.812,57.160,28.09
2018-07-15 14:00,35.591,22.809,57.170,28.10
2018-07-15 15:00,35.604,22.815,57.200,28.11
2018-07-15 16:00,35.602,22.801,57.240,28.15
2018-07-15 17:00,35.613,22.789,57.320,28.21
2018-07-15 18:00,35.624,22.777,57.400,28.27
2018-07-15 19:00,35.602,22.758,57.380,28.28
2018-07-15 20:00,35.609,22.759,57.400,28.29
2018-07-15 21:00,35.602,22.754,57.390,28.29
2018-07-15 22:00,35.596,22.760,57.350,28.26
2018-07-15 23:00,35.584,22.761,57.300,28.23
2018-07-16 00:00,35.586,22.772,57.270,28.20
2018-07-16 01:00,35.600,22.786,57.280,28.19
2018-07-16 02:00,35.601,22.790,57.270,28.18
2018-07-16 03:00,35.608,22.799,57.270,28.17
2018-07-16 04:00,35.609,22.802,57.260,28.16
2018-07-16 05:00,35.602,22.797,57.250,28.16
2018-07-16 06:00,35.602,22.801,57.240,28.15
2018-07-16 07:00,35.589,22.794,57.210,28.14
2018-07-16 08:00,35.596,22.799,57.220,28.14
2018-07-16 09:00,35.603,22.804,57.230,28.14
2018-07-16 10:00,35.617,22.815,57.250,28.14
2018-07-16 11:00,35.623,22.816,57.270,28.15
2018-07-16 12:00,35.629,22.814,57.300,28.17
2018-07-16 13:00,35.636,22.816,57.320,28.18
2018-07-16 14:00,35.635,22.812,57.330,28.19
2018-07-16 15:00,35.634,22.801,57.360,28.22
2018-07-16 16:00,35.626,22.792,57.360,28.23
2018-07-16 17:00,35.632,22.790,57.390,28.25
2018-07-16 18:00,35.630,22.775,57.430,28.29
2018-07-16 19:00,35.628,22.764,57.460,28.32
2018-07-16 20:00,35.628,22.764,57.460,28.32
2018-07-16 21:00,35.636,22.777,57.450,28.30
2018-07-16 22:00,35.631,22.786,57.400,28.26
2018-07-16 23:00,35.640,22.799,57.390,28.24
2018-07-17 00:00,35.640,22.803,57.380,28.23
2018-07-17 01:00,35.641,22.806,57.370,28.22
2018-07-17 19:00,35.659,22.761,57.590,28.40
2018-07-17 20:00,35.575,22.698,57.470,28.40
2018-07-17 21:00,35.557,22.700,57.390,28.35
2018-07-17 22:00,35.559,22.719,57.340,28.30
2018-07-17 23:00,35.554,22.725,57.300,28.27
2018-07-18 00:00,35.540,22.714,57.280,28.27
2018-07-18 01:00,35.513,22.701,57.220,28.25
2018-07-18 02:00,35.501,22.701,57.170,28.22
2018-07-18 03:00,35.502,22.708,57.150,28.20
2018-07-18 04:00,35.496,22.711,57.120,28.18
2018-07-18 05:00,35.489,22.709,57.100,28.17
2018-07-18 06:00,35.490,22.713,57.090,28.16
2018-07-18 07:00,35.497,22.722,57.090,28.15
2018-07-18 08:00,35.498,22.725,57.080,28.14
2018-07-18 09:00,35.498,22.729,57.070,28.13
2018-07-18 10:00,35.486,22.729,57.020,28.10
2018-07-18 11:00,35.478,22.717,57.030,28.12
2018-07-18 12:00,35.470,22.708,57.030,28.13
2018-07-18 13:00,35.475,22.695,57.090,28.18
2018-07-18 14:00,35.461,22.684,57.070,28.18
2018-07-18 15:00,35.472,22.680,57.130,28.22
2018-07-18 16:00,35.463,22.656,57.170,28.27
2018-07-18 17:00,35.461,22.645,57.200,28.30
2018-07-18 18:00,35.460,22.638,57.220,28.32
2018-07-18 19:00,35.453,22.629,57.220,28.33
2018-07-18 20:00,35.443,22.602,57.270,28.39
2018-07-18 21:00,35.439,22.619,57.200,28.33
2018-07-18 22:00,35.447,22.635,57.180,28.30
2018-07-18 23:00,35.441,22.633,57.160,28.29
2018-07-19 00:00,35.426,22.619,57.150,28.30
2018-07-19 01:00,35.421,22.625,57.110,28.27
2018-07-19 02:00,35.422,22.632,57.090,28.25
2018-07-19 03:00,35.422,22.632,57.090,28.25
2018-07-19 04:00,35.416,22.634,57.060,28.23
2018-07-19 05:00,35.402,22.624,57.040,28.23
2018-07-19 06:00,35.409,22.633,57.040,28.22
2018-07-19 07:00,35.424,22.647,57.050,28.21
2018-07-19 08:00,35.417,22.642,57.040,28.21
2018-07-19 09:00,35.424,22.651,57.040,28.20
2018-07-19 10:00,35.424,22.647,57.050,28.21
2018-07-19 11:00,35.417,22.642,57.040,28.21
2018-07-19 12:00,35.382,22.615,56.990,28.21
2018-07-19 13:00,35.382,22.612,57.000,28.22
2018-07-19 14:00,35.374,22.603,57.000,28.23
2018-07-19 15:00,35.366,22.586,57.020,28.26
2018-07-19 16:00,35.370,22.573,57.080,28.31
2018-07-19 17:00,35.381,22.558,57.170,28.38
2018-07-19 18:00,35.378,22.536,57.230,28.44
2018-07-19 19:00,35.379,22.543,57.210,28.42
2018-07-19 20:00,35.372,22.542,57.190,28.41
2018-07-19 21:00,35.374,22.553,57.160,28.38
2018-07-19 22:00,35.374,22.557,57.150,28.37
2018-07-19 23:00,35.362,22.561,57.090,28.33
2018-07-20 00:00,35.370,22.570,57.090,28.32
2018-07-20 01:00,35.371,22.577,57.070,28.30
2018-07-20 02:00,35.375,22.564,57.130,28.35
2018-07-20 03:00,35.313,22.520,57.030,28.34
2018-07-20 04:00,35.291,22.501,57.010,28.35
2018-07-20 05:00,35.298,22.503,57.030,28.36
2018-07-20 06:00,35.306,22.519,57.010,28.33
2018-07-20 07:00,35.307,22.526,56.990,28.31
2018-07-20 08:00,35.329,22.549,57.000,28.29
2018-07-20 09:00,35.337,22.562,56.990,28.27
2018-07-20 10:00,35.331,22.564,56.960,28.25
2018-07-20 11:00,35.353,22.583,56.980,28.24
2018-07-20 12:00,35.338,22.569,56.970,28.25
2018-07-20 13:00,35.331,22.560,56.970,28.26
2018-07-20 14:00,35.330,22.557,56.980,28.27
2018-07-20 15:00,35.324,22.559,56.950,28.25
2018-07-20 16:00,35.308,22.530,56.980,28.30
2018-07-20 17:00,35.312,22.517,57.040,28.35
2018-07-20 18:00,35.326,22.524,57.070,28.36
2018-07-20 19:00,35.330,22.510,57.130,28.41
2018-07-20 20:00,35.323,22.505,57.120,28.41
2018-07-20 21:00,35.325,22.516,57.090,28.38
2018-07-20 22:00,35.333,22.529,57.080,28.36
2018-07-20 23:00,35.327,22.531,57.050,28.34
2018-07-21 00:00,35.343,22.560,57.020,28.29
2018-07-21 01:00,35.343,22.560,57.020,28.29
2018-07-21 02:00,35.344,22.563,57.010,28.28
2018-07-21 03:00,35.337,22.558,57.000,28.28
2018-07-21 04:00,35.328,22.538,57.030,28.32
2018-07-21 05:00,35.327,22.535,57.040,28.33
2018-07-21 06:00,35.334,22.540,57.050,28.33
2018-07-21 07:00,35.341,22.545,57.060,28.33
2018-07-21 08:00,35.349,22.558,57.050,28.31
2018-07-21 09:00,35.350,22.561,57.040,28.30
2018-07-21 10:00,35.343,22.560,57.020,28.29
2018-07-21 11:00,35.351,22.572,57.010,28.27
2018-07-21 12:00,35.351,22.569,57.020,28.28
2018-07-21 13:00,35.343,22.556,57.030,28.30
2018-07-21 14:00,35.348,22.550,57.070,28.33
2018-07-21 15:00,35.360,22.546,57.130,28.37
2018-07-21 16:00,35.358,22.528,57.180,28.42
2018-07-21 17:00,35.362,22.515,57.240,28.47
2018-07-21 18:00,35.361,22.507,57.260,28.49
2018-07-21 19:00,35.366,22.498,57.310,28.53
2018-07-21 20:00,35.368,22.509,57.280,28.50
2018-07-21 21:00,35.362,22.511,57.250,28.48
2018-07-21 22:00,35.363,22.518,57.230,28.46
2018-07-21 23:00,35.358,22.528,57.180,28.42
2018-07-22 00:00,35.360,22.546,57.130,28.37
2018-07-22 01:00,35.362,22.557,57.100,28.34
2018-07-22 02:00,35.356,22.559,57.070,28.32
2018-07-22 03:00,35.356,22.559,57.070,28.32
2018-07-22 04:00,35.361,22.553,57.110,28.35
2018-07-22 05:00,35.362,22.561,57.090,28.33